DW4743 Weather Reports


time (UTC)temp
C
wind
direction
speed
KPH
gust
KPH
rain 1hr
cm
rain 24hr
cm
rain mn
cm
humidity
%
barometer
mb
20260507095808 16 225 3.2 11.3 0.00 0.00 0.00 100 1010.7
20260507094808 15 86 8.0 16.1 0.00 0.00 0.00 100 1010.8
20260507094309 15 49 4.8 16.1 0.00 0.00 0.00 100 1010.8
20260507093309 15 158 6.4 19.3 0.00 0.00 0.00 100 1010.8
20260507092808 15 76 3.2 19.3 0.00 0.00 0.00 100 1010.9
20260507092308 14 57 3.2 19.3 0.00 0.00 0.00 100 1011.0
20260507091809 14 70 9.7 19.3 0.00 0.00 0.00 100 1011.0
20260507090308 13 31 8.0 19.3 0.00 0.00 0.00 100 1011.0
20260507085809 13 90 9.7 19.3 0.00 0.00 0.00 100 1011.1
20260507084309 12 22 8.0 16.1 0.00 0.00 0.00 100 1011.2
20260507083808 12 20 8.0 16.1 0.00 0.00 0.00 100 1011.3
20260507083308 12 67 6.4 16.1 0.00 0.00 0.00 100 1011.4
20260507082808 12 63 8.0 12.9 0.00 0.00 0.00 100 1011.4
20260507075809 10 3 4.8 8.0 0.00 0.00 0.00 100 1011.6
20260507073809 8 314 1.6 4.8 0.00 0.00 0.00 100 1011.7
20260507072812 8 4 1.6 4.8 0.00 0.00 0.00 100 1011.8
20260507072308 8 332 1.6 4.8 0.00 0.00 0.00 100 1011.8
20260507070808 7 176 3.2 4.8 0.00 0.00 0.00 100 1011.8
20260507065308 6 32 0.0 3.2 0.00 0.00 0.00 100 1011.8
20260507064809 6 230 1.6 3.2 0.00 0.00 0.00 100 1011.8
20260507064308 6 271 1.6 3.2 0.00 0.00 0.00 100 1011.8
20260507062809 6 265 1.6 3.2 0.00 0.00 0.00 100 1012.0
20260507062308 6 261 0.0 3.2 0.00 0.00 0.00 100 1011.9
20260507060308 6 210 0.0 4.8 0.00 0.00 0.00 100 1011.8
20260507053808 6 176 0.0 3.2 0.00 0.00 0.00 100 1011.7
20260507052308 6 56 0.0 3.2 0.00 0.00 0.00 100 1011.6
20260507051308 6 340 1.6 3.2 0.00 0.00 0.00 100 1011.6
20260507050808 6 328 1.6 3.2 0.00 0.00 0.00 100 1011.6
20260507050308 6 330 1.6 3.2 0.00 0.00 0.00 100 1011.7
20260507045808 6 349 1.6 3.2 0.00 0.00 0.00 100 1011.7
20260507045308 6 357 1.6 3.2 0.00 0.00 0.00 100 1011.7
20260507043808 6 273 1.6 3.2 0.00 0.00 0.00 100 1011.8
20260507043308 6 263 1.6 3.2 0.00 0.00 0.00 100 1011.8
20260507042808 6 256 1.6 4.8 0.00 0.00 0.00 100 1011.8
20260507042308 6 248 3.2 4.8 0.00 0.00 0.00 100 1011.8
20260507035309 6 219 0.0 3.2 0.00 0.00 0.00 100 1011.9
20260507034808 6 203 1.6 3.2 0.00 0.00 0.00 100 1011.9
20260507033810 6 200 1.6 4.8 0.00 0.00 0.00 100 1012.0
20260507033308 6 188 3.2 4.8 0.00 0.00 0.00 100 1012.1
20260507031308 6 221 0.0 3.2 0.00 0.00 0.00 100 1012.1
20260507030308 6 155 1.6 3.2 0.00 0.00 0.00 100 1012.2
20260507025808 6 187 1.6 3.2 0.00 0.00 0.00 100 1012.2
20260507024807 6 9 0.0 3.2 0.00 0.00 0.00 100 1012.2
20260507024308 6 162 0.0 3.2 0.00 0.00 0.00 100 1012.3
20260507023308 6 149 1.6 3.2 0.00 0.03 0.00 100 1012.3
20260507022808 6 153 1.6 3.2 0.00 0.03 0.00 100 1012.2
20260507021808 6 155 1.6 3.2 0.00 0.03 0.00 100 1012.4
20260507020808 5 157 1.6 3.2 0.00 0.03 0.00 100 1012.5
20260507015808 5 154 1.6 1.6 0.00 0.03 0.00 100 1012.4
20260507015309 5 16 0.0 1.6 0.00 0.03 0.00 100 1012.4
20260507014808 5 63 0.0 3.2 0.00 0.03 0.00 100 1012.4
20260507013808 6 221 1.6 3.2 0.00 0.03 0.00 100 1012.5
20260507012808 6 236 1.6 4.8 0.00 0.03 0.00 100 1012.5
20260507011807 6 242 3.2 4.8 0.00 0.03 0.00 100 1012.6
20260507011308 6 229 1.6 1.6 0.00 0.03 0.00 100 1012.6
20260507010808 6 204 0.0 1.6 0.00 0.03 0.00 100 1012.7
20260507010308 6 45 0.0 1.6 0.00 0.03 0.00 100 1012.8
20260507005308 7 145 0.0 4.8 0.00 0.03 0.00 100 1012.9
20260507004311 7 155 1.6 3.2 0.00 0.03 0.00 100 1013.0
20260507001309 7 147 4.8 4.8 0.00 0.03 0.00 100 1013.1
20260506235808 7 179 1.6 3.2 0.00 0.03 0.00 100 1013.3
20260506235308 7 175 1.6 3.2 0.00 0.03 0.00 100 1013.3
20260506234808 7 183 0.0 1.6 0.00 0.03 0.00 100 1013.4
20260506234308 7 241 0.0 3.2 0.00 0.03 0.00 100 1013.4
20260506230808 7 278 3.2 4.8 0.00 0.03 0.00 100 1013.8
20260506225807 7 271 3.2 4.8 0.00 0.03 0.00 100 1013.8
20260506223308 7 298 1.6 3.2 0.00 0.03 0.00 100 1013.9
20260506222307 7 271 1.6 3.2 0.00 0.03 0.00 100 1014.1
20260506221808 7 263 1.6 3.2 0.00 0.03 0.00 100 1014.1
20260506221308 7 292 1.6 3.2 0.00 0.03 0.00 100 1014.2
20260506215307 8 5 4.8 4.8 0.00 0.03 0.03 100 1014.3
20260506214810 8 6 4.8 4.8 0.00 0.03 0.03 100 1014.3
20260506213808 8 9 3.2 4.8 0.00 0.03 0.03 100 1014.3
20260506213308 8 342 3.2 4.8 0.00 0.03 0.03 100 1014.3
20260506212808 8 6 3.2 4.8 0.00 0.03 0.03 100 1014.3
20260506212308 8 33 3.2 8.0 0.00 0.03 0.03 100 1014.2
20260506211808 8 41 4.8 9.7 0.00 0.03 0.03 100 1014.2
20260506211308 8 44 4.8 11.3 0.00 0.03 0.03 100 1014.2
20260506210808 8 51 8.0 11.3 0.00 0.03 0.03 100 1014.2
20260506205307 8 16 4.8 8.0 0.00 0.03 0.03 100 1014.1
20260506203308 8 354 6.4 9.7 0.00 0.03 0.03 99 1014.0
20260506202808 8 356 8.0 9.7 0.00 0.03 0.03 99 1014.0
20260506202307 8 11 8.0 9.7 0.00 0.03 0.03 99 1013.9
20260506201808 8 30 4.8 8.0 0.00 0.03 0.03 99 1013.9
20260506201308 8 46 4.8 9.7 0.00 0.03 0.03 99 1013.9
20260506200808 8 47 8.0 9.7 0.00 0.03 0.03 99 1013.8
20260506200307 8 38 4.8 12.9 0.00 0.03 0.03 99 1013.8
20260506195808 8 60 8.0 12.9 0.00 0.03 0.03 99 1013.8
20260506194808 9 58 8.0 12.9 0.00 0.03 0.03 99 1013.8
20260506194308 9 44 9.7 19.3 0.00 0.03 0.03 99 1013.7
20260506193807 9 37 11.3 20.9 0.00 0.03 0.03 99 1013.7
20260506193308 10 51 11.3 22.5 0.00 0.03 0.03 99 1013.6
20260506192808 10 54 14.5 24.1 0.00 0.03 0.03 99 1013.5
20260506191308 10 58 19.3 32.2 0.00 0.03 0.03 100 1013.5
20260506190307 11 45 19.3 33.8 0.00 0.03 0.03 100 1013.3
20260506185808 11 44 22.5 33.8 0.00 0.03 0.03 100 1013.2
20260506184807 12 53 19.3 35.4 0.00 0.03 0.03 100 1013.2
20260506183808 12 56 22.5 35.4 0.00 0.03 0.03 100 1013.2
20260506182807 12 52 27.4 32.2 0.00 0.03 0.03 100 1013.1
20260506181308 12 59 19.3 35.4 0.00 0.03 0.03 100 1013.2
20260506180307 13 1 12.9 19.3 0.00 0.03 0.03 100 1013.1
20260506175807 13 346 12.9 19.3 0.00 0.03 0.03 100 1013.1
20260506175308 13 6 11.3 19.3 0.00 0.03 0.03 100 1013.2
20260506173807 13 20 12.9 19.3 0.00 0.03 0.03 99 1013.2
20260506172807 13 27 12.9 24.1 0.00 0.03 0.03 96 1013.1
20260506172308 13 20 14.5 27.4 0.00 0.03 0.03 95 1013.1
20260506171308 14 51 24.1 27.4 0.00 0.03 0.03 92 1013.2
20260506170807 15 55 19.3 25.7 0.00 0.03 0.03 92 1013.1
20260506170307 15 25 19.3 24.1 0.00 0.03 0.03 91 1013.2
20260506165808 15 7 14.5 25.7 0.00 0.03 0.03 92 1013.1
20260506163807 15 337 16.1 24.1 0.00 0.03 0.03 93 1013.4
20260506162807 13 312 19.3 24.1 0.00 0.03 0.03 95 1013.5
20260506162307 13 312 16.1 24.1 0.00 0.03 0.03 93 1013.5
20260506161808 13 321 17.7 27.4 0.00 0.03 0.03 93 1013.5
20260506161307 13 319 17.7 27.4 0.00 0.03 0.03 92 1013.5
20260506160808 14 310 22.5 25.7 0.00 0.03 0.03 92 1013.5
20260506160307 14 350 17.7 24.1 0.00 0.03 0.03 93 1013.5
20260506155807 15 0 16.1 22.5 0.00 0.03 0.03 94 1013.5
20260506155308 14 336 14.5 27.4 0.00 0.03 0.03 94 1013.6
20260506154807 14 302 19.3 27.4 0.00 0.05 0.03 95 1013.6
20260506154309 13 334 17.7 29.0 0.00 0.05 0.03 94 1013.6
20260506153307 13 10 14.5 24.1 0.00 0.05 0.03 96 1013.7
20260506150807 13 18 11.3 22.5 0.00 0.05 0.03 94 1014.1
20260506145807 14 29 16.1 24.1 0.00 0.33 0.03 97 1014.3
20260506145307 14 350 17.7 24.1 0.00 0.56 0.03 97 1014.3
20260506144307 13 311 19.3 25.7 0.00 0.61 0.03 100 1014.4
20260506143807 13 307 20.9 25.7 0.00 0.61 0.03 99 1014.5
20260506143308 13 325 19.3 25.7 0.00 0.61 0.03 99 1014.6
20260506141808 13 311 19.3 32.2 0.00 0.61 0.03 98 1014.5
20260506141308 13 302 25.7 32.2 0.00 0.61 0.03 99 1014.6
20260506140807 13 338 20.9 29.0 0.00 0.61 0.03 100 1014.7
20260506135807 13 3 20.9 27.4 0.00 0.61 0.03 99 1014.7
20260506134308 14 326 20.9 25.7 0.00 0.64 0.03 95 1014.7
20260506133307 15 324 14.5 24.1 0.00 0.64 0.03 89 1014.5
20260506132307 16 38 14.5 24.1 0.00 0.64 0.03 79 1014.4
20260506131808 16 348 1.6 12.9 0.00 0.64 0.03 77 1014.4
20260506130808 16 103 6.4 19.3 0.00 0.64 0.03 81 1014.5
20260506125307 16 43 8.0 19.3 0.00 0.64 0.03 82 1014.6
20260506124808 16 36 8.0 12.9 0.00 0.64 0.03 87 1014.6
20260506123308 15 224 3.2 4.8 0.00 0.74 0.03 85 1014.9
20260506121808 14 77 9.7 16.1 0.00 0.74 0.03 88 1015.2
20260506121307 14 92 8.0 16.1 0.00 0.74 0.03 89 1015.2
20260506120807 14 112 6.4 11.3 0.00 0.76 0.03 88 1015.2
20260506115307 14 129 9.7 20.9 0.00 0.84 0.03 88 1015.3
20260506113808 15 88 8.0 19.3 0.00 0.89 0.03 90 1015.4
20260506112807 15 74 11.3 20.9 0.00 0.89 0.03 91 1015.5
20260506112307 14 127 4.8 16.1 0.00 0.89 0.03 92 1015.6
20260506110807 14 125 8.0 16.1 0.00 0.89 0.03 91 1015.7
20260506105807 14 135 8.0 19.3 0.00 0.89 0.03 97 1015.8
20260506104807 13 118 11.3 19.3 0.00 0.89 0.03 100 1015.8
20260506104307 13 83 9.7 19.3 0.00 0.89 0.03 100 1015.9
20260506102807 13 119 9.7 16.1 0.00 0.89 0.03 100 1016.2
20260506102309 12 111 9.7 14.5 0.00 0.89 0.03 100 1016.1
20260506101307 11 80 1.6 8.0 0.00 0.91 0.03 100 1016.2
20260506100307 11 135 1.6 8.0 0.00 0.99 0.03 100 1016.2